Time,TemperatureF,DewpointF,PressureIn,WindDirection,WindDirectionDegrees,WindSpeedMPH,WindSpeedGustMPH,Humidity,HourlyPrecipIn,Conditions,Clouds,dailyrainin,SolarRadiationWatts/m^2,SoftwareType,DateUTC
2013-05-01 00:14:00,73.8,69.0,29.95,ESE,105,0.0,0.0,84,0.00,,,0.00,0,weatherlink.com 1.10,2013-05-01 04:14:00,
2013-05-01 00:29:00,73.2,68.0,29.95,ESE,105,0.0,4.0,84,0.00,,,0.00,0,weatherlink.com 1.10,2013-05-01 04:29:00,
2013-05-01 00:44:00,73.2,68.0,29.94,ESE,105,0.0,1.0,84,0.00,,,0.00,0,weatherlink.com 1.10,2013-05-01 04:44:00,
2013-05-01 00:59:00,73.3,68.0,29.94,ESE,105,0.0,2.0,84,0.00,,,0.00,0,weatherlink.com 1.10,2013-05-01 04:59:00,
2013-05-01 01:14:00,73.1,68.0,29.94,ESE,105,0.0,3.0,84,0.00,,,0.00,0,weatherlink.com 1.10,2013-05-01 05:14:00,
2013-05-01 01:29:00,73.1,68.0,29.93,East,96,1.0,6.0,84,0.00,,,0.00,0,weatherlink.com 1.10,2013-05-01 05:29:00,
2013-05-01 01:44:00,73.2,68.0,29.92,ESE,107,1.0,5.0,84,0.00,,,0.00,0,weatherlink.com 1.10,2013-05-01 05:44:00,
2013-05-01 01:59:00,73.1,68.0,29.92,ESE,111,0.0,6.0,84,0.00,,,0.00,0,weatherlink.com 1.10,2013-05-01 05:59:00,
2013-05-01 02:14:00,73.1,68.0,29.92,ESE,117,0.0,5.0,84,0.00,,,0.00,0,weatherlink.com 1.10,2013-05-01 06:14:00,
2013-05-01 02:29:00,73.0,68.0,29.91,East,92,0.0,3.0,84,0.00,,,0.00,0,weatherlink.com 1.10,2013-05-01 06:29:00,
2013-05-01 02:44:00,72.8,68.0,29.91,SE,138,0.0,5.0,84,0.00,,,0.00,0,weatherlink.com 1.10,2013-05-01 06:44:00,
2013-05-01 02:59:00,72.8,68.0,29.91,ESE,123,0.0,3.0,84,0.00,,,0.00,0,weatherlink.com 1.10,2013-05-01 06:59:00,
2013-05-01 03:14:00,72.6,68.0,29.90,ESE,121,0.0,1.0,84,0.00,,,0.00,0,weatherlink.com 1.10,2013-05-01 07:14:00,
2013-05-01 03:29:00,72.5,67.0,29.90,East,101,1.0,3.0,84,0.00,,,0.00,0,weatherlink.com 1.10,2013-05-01 07:29:00,
2013-05-01 03:44:00,72.5,67.0,29.90,East,101,0.0,1.0,84,0.00,,,0.00,0,weatherlink.com 1.10,2013-05-01 07:44:00,
2013-05-01 03:59:00,72.1,67.0,29.90,East,101,0.0,2.0,84,0.00,,,0.00,0,weatherlink.com 1.10,2013-05-01 07:59:00,
2013-05-01 04:14:00,72.0,67.0,29.91,East,101,2.0,2.0,84,0.00,,,0.00,0,weatherlink.com 1.10,2013-05-01 08:14:00,
2013-05-01 04:29:00,72.2,67.0,29.91,East,101,0.0,3.0,84,0.00,,,0.00,0,weatherlink.com 1.10,2013-05-01 08:29:00,
2013-05-01 04:44:00,71.9,67.0,29.91,East,101,0.0,1.0,84,0.00,,,0.00,0,weatherlink.com 1.10,2013-05-01 08:44:00,
2013-05-01 04:59:00,71.9,67.0,29.91,East,101,0.0,2.0,84,0.00,,,0.00,0,weatherlink.com 1.10,2013-05-01 08:59:00,
2013-05-01 05:14:00,72.1,67.0,29.92,SE,128,0.0,4.0,84,0.00,,,0.00,0,weatherlink.com 1.10,2013-05-01 09:14:00,
2013-05-01 05:29:00,72.2,67.0,29.92,ESE,106,0.0,3.0,84,0.00,,,0.00,0,weatherlink.com 1.10,2013-05-01 09:29:00,
2013-05-01 05:44:00,72.0,67.0,29.93,SE,128,2.0,3.0,84,0.00,,,0.00,0,weatherlink.com 1.10,2013-05-01 09:44:00,
2013-05-01 05:59:00,72.2,67.0,29.93,ESE,111,2.0,4.0,84,0.00,,,0.00,9,weatherlink.com 1.10,2013-05-01 09:59:00,
2013-05-01 06:14:00,72.0,67.0,29.93,ESE,111,0.0,2.0,84,0.00,,,0.00,26,weatherlink.com 1.10,2013-05-01 10:14:00,
2013-05-01 06:29:00,72.4,67.0,29.93,SE,143,0.0,5.0,84,0.00,,,0.00,46,weatherlink.com 1.10,2013-05-01 10:29:00,
2013-05-01 06:44:00,73.0,68.0,29.94,SSE,165,1.0,5.0,84,0.00,,,0.00,77,weatherlink.com 1.10,2013-05-01 10:44:00,
2013-05-01 06:59:00,73.9,69.0,29.95,ESE,120,2.0,7.0,84,0.00,,,0.00,176,weatherlink.com 1.10,2013-05-01 10:59:00,
2013-05-01 07:14:00,74.6,70.0,29.95,WSW,258,0.0,5.0,84,0.00,,,0.00,234,weatherlink.com 1.10,2013-05-01 11:14:00,
2013-05-01 07:29:00,75.5,70.0,29.95,SE,134,0.0,3.0,84,0.00,,,0.00,292,weatherlink.com 1.10,2013-05-01 11:29:00,
2013-05-01 07:44:00,76.4,71.0,29.96,NE,49,2.0,6.0,84,0.00,,,0.00,417,weatherlink.com 1.10,2013-05-01 11:44:00,
2013-05-01 07:59:00,76.2,71.0,29.96,SSE,149,5.0,9.0,84,0.00,,,0.00,197,weatherlink.com 1.10,2013-05-01 11:59:00,
2013-05-01 08:14:00,76.0,71.0,29.96,East,99,2.0,7.0,84,0.00,,,0.00,452,weatherlink.com 1.10,2013-05-01 12:14:00,
2013-05-01 08:30:00,75.6,-99.9,29.96,ESE,106,4.0,8.0,0,0.00,,,0.00,169,weatherlink.com 1.10,2013-05-01 12:30:00,
2013-05-01 08:44:00,76.6,-99.9,29.96,NE,55,0.0,8.0,0,0.00,,,0.00,559,weatherlink.com 1.10,2013-05-01 12:44:00,
2013-05-01 09:00:00,78.2,-99.9,29.96,East,88,2.0,7.0,0,0.00,,,0.00,471,weatherlink.com 1.10,2013-05-01 13:00:00,
2013-05-01 09:15:00,79.5,-99.9,29.96,SSW,210,2.0,9.0,0,0.00,,,0.00,399,weatherlink.com 1.10,2013-05-01 13:15:00,
2013-05-01 09:30:00,80.2,-99.9,29.97,ESE,123,4.0,8.0,0,0.00,,,0.00,209,weatherlink.com 1.10,2013-05-01 13:30:00,
2013-05-01 09:45:00,79.1,-99.9,29.97,SSE,150,3.0,9.0,0,0.00,,,0.00,209,weatherlink.com 1.10,2013-05-01 13:45:00,
2013-05-01 10:00:00,81.0,-99.9,29.97,ENE,65,0.0,9.0,0,0.00,,,0.00,937,weatherlink.com 1.10,2013-05-01 14:00:00,
2013-05-01 10:15:00,81.9,-99.9,29.97,East,84,5.0,9.0,0,0.00,,,0.00,838,weatherlink.com 1.10,2013-05-01 14:15:00,
2013-05-01 10:30:00,81.1,-99.9,29.96,ESE,122,0.0,10.0,0,0.00,,,0.00,237,weatherlink.com 1.10,2013-05-01 14:30:00,
2013-05-01 10:45:00,82.7,-99.9,29.96,SSE,148,7.0,9.0,0,0.00,,,0.00,914,weatherlink.com 1.10,2013-05-01 14:45:00,
2013-05-01 11:01:00,82.5,-99.9,29.95,East,88,2.0,8.0,0,0.00,,,0.00,998,weatherlink.com 1.10,2013-05-01 15:01:00,
2013-05-01 11:16:00,83.3,-99.9,29.95,East,95,3.0,10.0,0,0.00,,,0.00,1018,weatherlink.com 1.10,2013-05-01 15:16:00,
2013-05-01 11:31:00,82.1,-99.9,29.95,SE,131,1.0,9.0,0,0.00,,,0.00,271,weatherlink.com 1.10,2013-05-01 15:31:00,
2013-05-01 11:46:00,81.6,-99.9,29.95,ESE,107,2.0,13.0,0,0.00,,,0.00,292,weatherlink.com 1.10,2013-05-01 15:46:00,
2013-05-01 12:01:00,83.6,-99.9,29.94,SSE,156,4.0,9.0,0,0.00,,,0.00,1016,weatherlink.com 1.10,2013-05-01 16:01:00,
2013-05-01 12:16:00,83.2,-99.9,29.94,ESE,115,3.0,15.0,0,0.00,,,0.00,1107,weatherlink.com 1.10,2013-05-01 16:16:00,
2013-05-01 12:31:00,81.8,-99.9,29.94,ESE,120,4.0,14.0,0,0.00,,,0.00,1035,weatherlink.com 1.10,2013-05-01 16:31:00,
2013-05-01 12:46:00,81.7,-99.9,29.93,ESE,120,1.0,8.0,0,0.00,,,0.00,1130,weatherlink.com 1.10,2013-05-01 16:46:00,
2013-05-01 13:01:00,82.2,-99.9,29.92,SSE,167,5.0,13.0,0,0.00,,,0.00,1185,weatherlink.com 1.10,2013-05-01 17:01:00,
2013-05-01 13:16:00,82.0,-99.9,29.92,East,97,7.0,8.0,0,0.00,,,0.00,313,weatherlink.com 1.10,2013-05-01 17:16:00,
2013-05-01 13:32:00,81.3,-99.9,29.91,South,189,3.0,11.0,0,0.00,,,0.00,1085,weatherlink.com 1.10,2013-05-01 17:32:00,
2013-05-01 13:47:00,82.8,-99.9,29.91,East,81,5.0,14.0,0,0.00,,,0.00,315,weatherlink.com 1.10,2013-05-01 17:47:00,
2013-05-01 14:02:00,83.6,-99.9,29.90,ESE,119,0.0,12.0,0,0.00,,,0.00,1106,weatherlink.com 1.10,2013-05-01 18:02:00,
2013-05-01 14:17:00,83.8,-99.9,29.90,East,91,6.0,10.0,0,0.00,,,0.00,601,weatherlink.com 1.10,2013-05-01 18:17:00,
2013-05-01 14:32:00,83.3,-99.9,29.89,ESE,109,4.0,14.0,0,0.00,,,0.00,898,weatherlink.com 1.10,2013-05-01 18:32:00,
2013-05-01 14:47:00,83.9,-99.9,29.89,South,180,0.0,11.0,0,0.00,,,0.00,847,weatherlink.com 1.10,2013-05-01 18:47:00,
2013-05-01 15:02:00,82.9,0.0,29.89,East,91,8.0,16.0,4,0.00,,,0.00,265,weatherlink.com 1.10,2013-05-01 19:02:00,
2013-05-01 15:17:00,81.5,-15.0,29.89,NE,55,2.0,12.0,2,0.00,,,0.00,258,weatherlink.com 1.10,2013-05-01 19:17:00,
2013-05-01 15:32:00,80.8,-99.9,29.89,East,86,3.0,11.0,0,0.00,,,0.00,248,weatherlink.com 1.10,2013-05-01 19:32:00,
2013-05-01 15:47:00,79.4,-99.9,29.89,East,88,7.0,13.0,0,0.00,,,0.00,236,weatherlink.com 1.10,2013-05-01 19:47:00,
2013-05-01 16:02:00,78.1,-99.9,29.88,SSE,147,2.0,13.0,0,0.00,,,0.00,374,weatherlink.com 1.10,2013-05-01 20:02:00,
2013-05-01 16:17:00,77.5,-99.9,29.88,ESE,109,5.0,11.0,0,0.00,,,0.00,134,weatherlink.com 1.10,2013-05-01 20:17:00,
2013-05-01 16:32:00,76.6,-99.9,29.88,East,92,6.0,10.0,0,0.00,,,0.00,279,weatherlink.com 1.10,2013-05-01 20:32:00,
2013-05-01 16:48:00,76.7,-99.9,29.89,East,101,6.0,10.0,0,0.00,,,0.00,179,weatherlink.com 1.10,2013-05-01 20:48:00,
2013-05-01 17:03:00,76.5,-99.9,29.89,East,85,5.0,7.0,0,0.00,,,0.00,121,weatherlink.com 1.10,2013-05-01 21:03:00,
2013-05-01 17:18:00,76.5,-99.9,29.89,ESE,107,2.0,8.0,0,0.00,,,0.00,315,weatherlink.com 1.10,2013-05-01 21:18:00,
2013-05-01 17:33:00,77.1,-99.9,29.89,ESE,110,1.0,6.0,0,0.00,,,0.00,74,weatherlink.com 1.10,2013-05-01 21:33:00,
2013-05-01 17:48:00,75.9,-99.9,29.89,East,100,3.0,9.0,0,0.00,,,0.00,37,weatherlink.com 1.10,2013-05-01 21:48:00,
2013-05-01 18:03:00,75.6,-99.9,29.90,East,96,2.0,6.0,0,0.00,,,0.00,33,weatherlink.com 1.10,2013-05-01 22:03:00,
2013-05-01 18:18:00,75.4,-99.9,29.90,ESE,103,4.0,7.0,0,0.00,,,0.00,37,weatherlink.com 1.10,2013-05-01 22:18:00,
2013-05-01 18:33:00,75.1,-99.9,29.91,ESE,119,0.0,9.0,0,0.00,,,0.00,12,weatherlink.com 1.10,2013-05-01 22:33:00,
2013-05-01 18:48:00,74.7,-99.9,29.91,ESE,119,2.0,5.0,0,0.00,,,0.00,0,weatherlink.com 1.10,2013-05-01 22:48:00,
2013-05-01 19:03:00,74.4,-99.9,29.91,East,100,5.0,7.0,0,0.00,,,0.00,0,weatherlink.com 1.10,2013-05-01 23:03:00,
2013-05-01 19:18:00,74.4,-99.9,29.92,SE,138,1.0,4.0,0,0.00,,,0.00,0,weatherlink.com 1.10,2013-05-01 23:18:00,
2013-05-01 19:33:00,74.3,-99.9,29.91,East,98,3.0,7.0,0,0.00,,,0.00,0,weatherlink.com 1.10,2013-05-01 23:33:00,
2013-05-01 19:48:00,74.3,-99.9,29.91,ESE,105,9.0,10.0,0,0.00,,,0.00,0,weatherlink.com 1.10,2013-05-01 23:48:00,
2013-05-01 20:03:00,74.3,-99.9,29.91,SE,126,0.0,9.0,0,0.00,,,0.00,0,weatherlink.com 1.10,2013-05-02 00:03:00,
2013-05-01 20:19:00,74.3,-99.9,29.91,SE,138,5.0,7.0,0,0.00,,,0.00,0,weatherlink.com 1.10,2013-05-02 00:19:00,
2013-05-01 20:34:00,74.2,-99.9,29.91,SSE,151,2.0,8.0,0,0.00,,,0.00,0,weatherlink.com 1.10,2013-05-02 00:34:00,
2013-05-01 20:49:00,74.2,-99.9,29.92,South,175,3.0,7.0,0,0.00,,,0.00,0,weatherlink.com 1.10,2013-05-02 00:49:00,
2013-05-01 21:04:00,74.4,-99.9,29.93,SE,135,2.0,7.0,0,0.00,,,0.00,0,weatherlink.com 1.10,2013-05-02 01:04:00,
2013-05-01 21:19:00,74.4,-99.9,29.93,SE,134,1.0,5.0,0,0.00,,,0.00,0,weatherlink.com 1.10,2013-05-02 01:19:00,
2013-05-01 21:34:00,74.4,-99.9,29.93,SE,134,0.0,3.0,0,0.00,,,0.00,0,weatherlink.com 1.10,2013-05-02 01:34:00,
2013-05-01 21:49:00,74.3,-99.9,29.93,SE,136,0.0,5.0,0,0.00,,,0.00,0,weatherlink.com 1.10,2013-05-02 01:49:00,
2013-05-01 22:04:00,74.1,-99.9,29.94,SE,136,0.0,2.0,0,0.00,,,0.00,0,weatherlink.com 1.10,2013-05-02 02:04:00,
2013-05-01 22:19:00,74.0,-99.9,29.94,SE,136,1.0,2.0,0,0.00,,,0.00,0,weatherlink.com 1.10,2013-05-02 02:19:00,
2013-05-01 22:34:00,73.9,-99.9,29.94,SE,145,1.0,4.0,0,0.00,,,0.00,0,weatherlink.com 1.10,2013-05-02 02:34:00,
2013-05-01 22:49:00,73.8,-99.9,29.93,SE,138,1.0,4.0,0,0.00,,,0.00,0,weatherlink.com 1.10,2013-05-02 02:49:00,
2013-05-01 23:04:00,73.7,-99.9,29.93,SE,143,1.0,5.0,0,0.00,,,0.00,0,weatherlink.com 1.10,2013-05-02 03:04:00,
2013-05-01 23:19:00,73.6,-99.9,29.93,SSE,156,2.0,4.0,0,0.00,,,0.00,0,weatherlink.com 1.10,2013-05-02 03:19:00,
2013-05-01 23:35:00,73.7,-99.9,29.92,SSE,160,0.0,4.0,0,0.00,,,0.00,0,weatherlink.com 1.10,2013-05-02 03:35:00,
2013-05-01 23:50:00,73.5,-99.9,29.91,SE,137,2.0,4.0,0,0.00,,,0.00,0,weatherlink.com 1.10,2013-05-02 03:50:00,